Location: Treviso
(45.6669°N, 12.2430°E)
Time: 09:23:14
(UTC+02:00)

ISS - Pass Details

Date: 28 June 2022
Orbit: 414 x 420 km, 51.6° (Epoch: 02 July)

Event Time Altitude Azimuth Distance (km) Brightness Sun altitude
Exits shadow 04:08:34 14° 196° (SSW) 1,260 -1.9 -10.5°
Maximum altitude 04:10:52 30° 140° (SE) 784 -2.5 -10.2°
Drops below altitude 10° 04:13:51 10° 78° (ENE) 1,501 -0.1 -9.9°
Sets 04:16:07 0° 67° (ENE) 2,369 1.4 -9.6°
